Terug naar catalogus

STARLINK-36691

ActiefCommunicatieSSO
NORAD 67735·PAYLOAD·🇺🇸 United States

Gelanceerd Feb 11, 2026 vanaf Vandenberg Space Force Base

Loading…

Volgende Passages (komende 24 uur)

TLE

VersSource: CelesTrak SupGP

Epoch: Sep 15, 2026, 02:42 UTC

1 67735C 26026Q   26258.11298611 -.00000934  00000+0 -28991-4 0  2584
2 67735  97.2848 310.0455 0000996  89.6088  12.3229 15.33441754    16

Volg STARLINK-36691 in realtime met AllMySat

Download on the App Store